Regional Weather Roundup
Issued by NWS

Home | Current Version | Previous Version | Graphics & Text | Print | Product List | Glossary On
Versions: 1 2 3 4 5 6 7 8 9 10 11 12 13 14 15 16 17 18 19 20 21 22 23 24 25 26 27 28 29 30 31 32 33 34 35 36 37 38 39 40 41 42 43 44 45 46 47 48 49 50
000
ASUS43 KDMX 222307
RWRIA

WEATHER ROUNDUP FOR IOWA
NATIONAL WEATHER SERVICE DES MOINES IA
600 PM CDT FRI AUG 22 2014

NOTE: "FAIR" INDICATES FEW OR NO CLOUDS BELOW 12,000 FEET WITH NO
SIGNIFICANT WEATHER AND/OR OBSTRUCTIONS TO VISIBILITY.

* - THESE STATIONS ARE NOT NWS STATIONS...THUS NOT UNDER NWS
QUALITY CONTROL.  THEY ALSO DO NOT REPORT WEATHER SUCH
AS PRECIPITATION OR FOG.

IAZ001>003-012>014-020>022-031>034-043>046-230000-
   NORTHWEST IOWA

CITY           SKY/WX    TMP DP  RH WIND       PRES   REMARKS
CARROLL *      CLOUDY    81  77  89 SE7       29.93R HX  88
CHEROKEE *     MOSUNNY   82  75  78 NE8       29.94S HX  89
DENISON *      CLOUDY    72  70  94 E10       29.93R
LE MARS *      PTSUNNY   84  73  70 NE10      29.95S HX  91
ORANGE CITY *  SUNNY     82  70  65 E6        29.97S HX  86
SHELDON *      MOSUNNY   81  73  78 NE7       29.96S HX  85
SIOUX CITY     MOSUNNY   88  75  65 E8        29.92S HX  97
SPENCER        MOSUNNY   84  72  67 NE5       29.96F HX  89
STORM LAKE *   SUNNY     82  79  89 NE10      29.95S HX  93
$$

IAZ055>058-069>071-079>083-090>094-230000-
   SOUTHWEST IOWA

CITY           SKY/WX    TMP DP  RH WIND       PRES   REMARKS
ATLANTIC *     SUNNY     81  75  83 VRB6      29.94R HX  86
AUDUBON *      MOSUNNY   79  73  83 S8G21     29.95R HX  82
CLARINDA *     SUNNY     82  77  83 CALM      29.92F HX  91
COUNCIL BLFS * SUNNY     79  79 100 E3        29.89F HX  83
CRESTON *      SUNNY     81  75  83 SE5       29.94F HX  86
HARLAN  *      PTSUNNY   79  77  94 E5        29.95S HX  83
LAMONI         MOSUNNY   82  75  79 N3        29.93F HX  89
RED OAK *      CLOUDY    81  73  78 SE6G13    29.90F HX  85
SHENANDOAH *   SUNNY     81  75  83 SE5       29.90F HX  86
$$

IAZ047>049-059>061-072>074-084-230000-
   CENTRAL IOWA

CITY           SKY/WX    TMP DP  RH WIND       PRES   REMARKS
AMES           PTSUNNY   84  77  79 SE3       29.92R HX  94
ANKENY *       SUNNY     84  79  84 S5        29.91R HX  96
CHARITON *     MOSUNNY   86  77  74 SW6       29.94R HX  97
DES MOINES     PTSUNNY   86  78  77 S3        29.91R HX  98
GRINNELL*      MOSUNNY   82  75  78 CALM      29.94R HX  89
KNOXVILLE *    MOSUNNY   86  79  79 SW6       29.91R HX  99
MARSHALLTOWN   PTSUNNY   86  76  71 S6        29.92R HX  96
PELLA *        MOSUNNY   86  79  79 S6        29.92S HX  99
PERRY *          N/A     82  77  83 S3        29.93R HX  91
$$

IAZ004>006-015-016-023>025-035-036-230000-
   NORTH CENTRAL IOWA

CITY           SKY/WX    TMP DP  RH WIND       PRES   REMARKS
ALGONA *       SUNNY     84  75  74 NE7       29.95S HX  92
CLARION *      SUNNY     84  77  79 NE6       29.93S HX  94
ESTHERVILLE    MOSUNNY   83  71  67 N7        29.96S HX  87
FORT DODGE *   CLOUDY    82  75  78 E3        29.94R HX  89
MASON CITY     MOSUNNY   85  73  67 NE6       29.96S HX  91
FOREST CITY *  MOSUNNY   82  72  69 CALM      29.95S HX  87
IOWA FALLS *     N/A     82  77  83 NE5       29.94R HX  91
$$

IAZ007>011-017>019-026>030-037>042-050>054-066-230000-
   NORTHEAST IOWA

CITY           SKY/WX    TMP DP  RH WIND       PRES   REMARKS
CEDAR RAPIDS   PTSUNNY   84  76  76 SW6       29.92R HX  93
CHARLES CITY * MOSUNNY   84  77  79 CALM      29.94F HX  94
CLINTON *      PTSUNNY   84  75  74 SW5       29.96R HX  92
DECORAH *      MOSUNNY   84  75  74 NW3       29.94S HX  92
DUBUQUE        CLOUDY    83  77  82 SW5       29.94S THUNDER HX  92
MONTICELLO *   SUNNY     86  77  74 VRB6      29.91S HX  97
OELWEIN *      MOSUNNY   86  79  79 N7        29.93F HX  99
WATERLOO       PTSUNNY   79  71  76 N6        29.90F HX  82
$$

IAZ064-065-067-068-078-230000-
   EAST CENTRAL IOWA

CITY           SKY/WX    TMP DP  RH WIND       PRES   REMARKS
DAVENPORT      PTSUNNY   84  75  74 CALM      29.94R HX  92
IOWA CITY      PTSUNNY   84  76  76 CALM      29.93R HX  93
MT. PLEASANT * PTSUNNY   86  73  66 SW5       29.93R HX  93
MUSCATINE *    MOSUNNY   86  75  70 SW5       29.92R HX  95
QUAD CITIES    PTSUNNY   85  75  72 S5        29.92R HX  93
$$

IAZ062-063-075>077-085>089-095>099-230000-
   SOUTHEAST IOWA

CITY           SKY/WX    TMP DP  RH WIND       PRES   REMARKS
BURLINGTON     MOSUNNY   85  78  80 SW7       29.93R HX  96
FAIRFIELD *    SUNNY     86  77  74 S6        29.93S HX  97
FORT MADISON * SUNNY     86  79  79 S3        29.94R HX  99
KEOKUK *       SUNNY     84  79  84 SW3       29.92S HX  96
OSKALOOSA *      N/A     86  79  79 S7        29.92R HX  99
CENTERVILLE *  SUNNY     84  79  84 SW5       29.96S HX  96
OTTUMWA        PTSUNNY   85  76  74 SW6       29.92R HX  94
WASHINGTON *   SUNNY     86  79  79 S7        29.93R HX  99
$$

ABBREVIATIONS USED IN REMARKS
   TC - TEMPERATURES IN CELSIUS
  WCI - WIND CHILL INDEX
   HX - HEAT INDEX
  VSB - VISIBILITY
$$



USA.gov is the U.S. government's official web portal to all federal, state and local government web resources and services.